Volver al catálogo

TIROS 9

ActivoMeteoPO
NORAD 978·PAYLOAD·🇺🇸 United States

Lanzado Jan 22, 1965 desde Cape Canaveral Space Force Station

Loading…

Próximos Pases (próximas 24 horas)

TLE

ActualizadoSource: Space-Track

Época: Sep 14, 2026, 14:11 UTC

1 00978U 65004A   26257.59118332 -.00000127  00000-0 -14117-3 0  9992
2 00978  96.4135   4.0648 1157518 201.6703 153.1321 12.11154862722438

Sigue TIROS 9 en tiempo real con AllMySat

Download on the App Store